Hourly Data Report for June 03, 2021

WRIGLEY A
NORTHWEST TERRITORIES
Current Station Operator: NAVCAN

63°12'35.000" N
123°26'12.000" W
149.70 m
2204005
YWY

Download Data

Hourly Data (June 2021)
Hourly Data Report for June 3, 2021
TIME
LST
Temp Definition
°C
Dew Point Definition
°C
Rel Hum Definition
%
Precip. Amount Definition
mm

Wind Dir Definition
10's deg

Wind Spd Definition
km/h
Visibility Definition
km
Stn Press Definition
kPa
Hmdx Definition


Wind Chill Definition


Weather Definition


00:00 15.5 10.8 73 LegendMM 15 13 LegendMM 98.06     LegendNANA
01:00 15.5 10.5 72 LegendMM 16 10 LegendMM 98.03     LegendNANA
02:00 12.2 10.0 86 LegendMM 3 3 LegendMM 98.02     LegendNANA
03:00 10.8 9.6 93 LegendMM 26 4 LegendMM 97.99     LegendNANA
04:00 10.7 9.8 94 LegendMM 32 7 LegendMM 97.97     LegendNANA
05:00 10.0 9.3 95 LegendMM 29 5 LegendMM 97.97     LegendNANA
06:00 10.8 9.8 93 LegendMM 30 9 LegendMM 97.97     LegendNANA
07:00 11.9 9.7 86 LegendMM 30 18 LegendMM 97.94     LegendNANA
08:00 12.4 9.4 82 LegendMM 30 16 LegendMM 97.93     LegendNANA
09:00 13.3 9.3 77 LegendMM 31 16 LegendMM 97.91     LegendNANA
10:00 15.9 10.6 70 LegendMM 27 8 LegendMM 97.86     LegendNANA
11:00 17.4 10.8 65 LegendMM 23 6 LegendMM 97.81     LegendNANA
12:00 18.8 10.7 59 LegendMM 27 5 LegendMM 97.76     LegendNANA
13:00 19.7 10.7 56 LegendMM 30 10 LegendMM 97.76     LegendNANA
14:00 22.4 6.8 36 LegendMM 29 14 LegendMM 97.71     LegendNANA
15:00 22.7 7.2 36 LegendMM 30 6 LegendMM 97.67     LegendNANA
16:00 19.2 7.7 47 LegendMM 30 16 LegendMM 97.69     LegendNANA
17:00 19.2 8.2 49 LegendMM 33 7 LegendMM 97.69     LegendNANA
18:00 16.9 9.2 60 LegendMM 24 8 LegendMM 97.79     LegendNANA
19:00 13.4 11.2 86 LegendMM 6 10 LegendMM 97.79     LegendNANA
20:00 14.0 11.1 83 LegendMM 30 9 LegendMM 97.88     LegendNANA
21:00 13.8 9.2 74 LegendMM 31 9 LegendMM 97.95     LegendNANA
22:00 11.9 9.2 84 LegendMM 31 15 LegendMM 97.94     LegendNANA
23:00 11.0 9.4 90 LegendMM 32 10 LegendMM 98.00     LegendNANA

Notes on Data Quality.

Legend

  • E = Estimated
  • M = Missing
  • NA = Not Available*
  • [empty] = Indicates an unobserved value
Date modified: